Date,TemperatureHighF,TemperatureAvgF,TemperatureLowF,DewpointHighF,DewpointAvgF,DewpointLowF,HumidityHigh,HumidityAvg,HumidityLow,PressureMaxIn,PressureMinIn,WindSpeedMaxMPH,WindSpeedAvgMPH,GustSpeedMaxMPH,PrecipitationSumIn
2013-1-1,42.8,39.5,36.0,38.1,35.1,32.2,89,84,80,29.91,29.33,18,4,35,0.06
2013-1-2,51.5,44.5,39.2,49.1,42.3,36.0,95,92,87,30.10,29.91,8,1,28,0.04
2013-1-3,51.3,50.2,46.9,48.6,47.0,44.4,93,89,84,30.42,30.10,16,4,40,0.04
2013-1-4,49.8,48.0,46.0,47.0,44.4,42.7,91,87,83,30.48,30.41,8,1,18,0.00
2013-1-5,49.4,47.3,44.3,46.8,43.7,41.9,93,87,81,30.44,30.30,7,1,20,0.02
2013-1-6,47.3,43.5,36.6,44.9,41.1,34.8,95,91,83,30.41,30.20,8,1,14,0.03
2013-1-7,49.7,47.1,44.5,45.8,43.5,41.1,92,88,83,30.21,30.01,9,2,22,0.07
2013-1-8,50.9,47.4,38.1,48.0,44.1,35.4,92,88,85,30.14,29.98,10,2,25,0.07
2013-1-9,42.5,36.1,31.9,37.0,33.4,30.3,94,90,78,30.14,30.01,6,0,14,0.00
2013-1-10,36.3,33.2,29.6,34.0,31.6,28.3,95,94,91,30.01,29.89,3,0,7,0.01
2013-1-11,37.7,33.1,27.9,36.4,31.7,26.7,96,94,91,30.00,29.90,3,1,10,0.03
2013-1-12,38.3,34.4,27.6,33.7,30.9,25.6,92,87,80,30.06,29.88,10,2,22,0.03
2013-1-13,32.6,29.7,25.8,30.1,27.8,23.9,94,92,89,30.11,29.97,5,1,10,0.01
2013-1-14,36.8,32.8,30.7,32.7,30.5,28.5,95,91,82,29.97,29.66,15,4,25,0.10
2013-1-15,33.1,30.3,24.7,30.2,27.8,22.4,93,91,84,29.84,29.72,7,0,14,0.01
2013-1-16,31.8,29.0,23.8,26.1,23.9,21.3,91,81,75,29.94,29.81,6,2,14,0.01
2013-1-17,32.9,30.9,28.5,27.9,25.0,21.9,84,79,73,29.96,29.77,18,5,31,0.00
2013-1-18,31.6,30.0,28.4,26.2,24.5,22.7,86,80,73,29.76,29.46,17,10,35,0.00
2013-1-19,33.8,31.8,29.9,29.2,27.3,25.6,88,83,78,29.62,29.48,14,3,25,0.01
2013-1-20,33.7,32.8,31.5,27.5,26.4,25.5,85,77,74,29.59,29.40,12,4,24,0.01
2013-1-21,33.9,32.0,28.9,30.6,28.1,25.3,91,86,77,29.40,29.30,14,5,31,0.01
2013-1-22,33.0,30.4,28.2,29.8,27.0,24.5,91,87,84,29.76,29.40,9,2,21,0.01
2013-1-23,33.5,31.6,29.7,30.1,28.3,27.0,92,88,84,29.87,29.76,6,0,13,0.01
2013-1-24,36.4,31.9,29.8,29.4,27.4,24.6,91,84,68,30.03,29.87,6,1,13,0.01
2013-1-25,32.6,30.9,28.0,30.2,26.8,21.9,94,85,73,29.99,29.38,12,4,22,0.01
2013-1-26,40.1,36.6,31.4,38.5,33.7,29.9,95,89,78,29.59,29.08,9,2,22,1.01
2013-1-27,45.9,40.8,35.8,42.9,36.1,31.7,94,84,72,29.29,28.88,12,4,34,0.06
2013-1-28,47.3,41.2,37.4,40.5,35.5,31.2,92,80,72,29.42,29.03,15,5,37,0.40
2013-1-29,51.3,46.1,43.4,49.0,41.1,36.4,94,83,72,29.39,29.07,23,5,34,0.29
2013-1-30,44.9,42.4,40.2,39.0,36.5,34.2,90,80,72,29.73,29.18,22,8,46,0.14
2013-1-31,44.6,42.7,38.6,38.3,35.8,33.3,90,77,68,29.73,29.35,28,9,48,0.02
2013-2-1,42.7,39.6,32.7,37.3,34.2,28.5,89,81,75,29.71,29.35,18,5,29,0.02
2013-2-2,37.5,32.5,29.2,29.2,26.5,23.8,88,79,67,30.17,29.71,20,4,29,0.02
2013-2-3,47.0,42.7,30.7,43.8,38.4,24.9,92,85,78,30.09,29.59,23,7,37,0.03
2013-2-4,48.1,40.0,35.3,44.7,33.7,27.8,92,78,69,29.66,29.39,33,16,53,0.14
2013-2-5,38.9,35.2,31.8,36.2,31.2,27.0,92,85,74,29.39,29.08,32,10,43,0.24
2013-2-6,38.9,35.9,32.4,34.0,29.2,26.3,88,77,66,30.07,29.40,30,15,51,0.27
2013-2-7,36.4,31.9,29.0,31.4,28.0,24.8,93,85,78,30.08,29.93,3,0,6,0.00
2013-2-8,41.5,36.3,31.2,34.3,31.9,29.2,93,85,68,30.12,30.02,20,4,32,0.01
2013-2-9,37.6,35.5,32.9,36.0,33.7,31.1,100,93,89,30.10,29.74,5,1,12,0.02
2013-2-10,36.3,35.0,33.3,34.3,32.3,29.6,94,90,83,29.74,29.28,16,7,34,0.03
2013-2-11,37.1,34.7,33.6,30.2,28.0,25.8,85,76,66,29.85,29.35,15,7,31,0.03
2013-2-12,36.4,33.8,32.4,28.6,27.8,26.4,84,78,71,30.05,29.85,8,2,15,0.02
2013-2-13,38.5,32.8,29.0,36.4,29.1,24.6,92,86,75,30.05,29.60,14,5,27,0.56
2013-2-14,44.0,40.4,35.5,41.0,37.3,33.9,97,89,83,29.84,29.59,15,3,26,0.59
2013-2-15,45.6,40.1,34.4,38.3,35.6,32.3,94,84,70,30.10,29.84,8,2,26,0.00
2013-2-16,46.2,40.7,35.9,40.0,37.1,33.1,93,87,78,30.11,30.08,6,1,13,0.00
2013-2-17,45.2,39.7,34.4,38.6,33.5,29.7,91,79,65,30.09,30.01,8,2,18,0.00
2013-2-18,43.7,36.0,29.7,33.3,29.9,26.5,89,79,62,30.08,30.04,9,2,18,0.00
2013-2-19,45.6,34.8,25.7,36.5,29.9,23.5,92,83,58,30.08,30.01,7,0,14,0.00
2013-2-20,38.4,35.5,31.5,36.3,30.9,25.4,92,83,75,30.25,30.08,15,7,27,0.00
2013-2-21,36.0,32.6,30.5,26.0,24.3,21.4,81,71,63,30.27,30.21,13,7,28,0.00
2013-2-22,34.3,32.5,31.1,26.2,24.2,21.7,79,71,66,30.23,30.19,9,2,21,0.00
2013-2-23,37.4,32.6,30.7,30.6,27.0,25.0,87,80,72,30.29,30.18,7,1,14,0.01
2013-2-24,32.0,31.4,31.2,27.3,27.2,26.9,85,84,82,30.29,30.28,7,2,12,0.01
2013-3-12,38.4,30.5,19.0,28.8,23.4,15.6,88,75,63,30.02,29.83,13,2,25,0.00
2013-3-13,40.2,33.4,26.5,28.1,25.5,21.8,87,73,56,29.95,29.81,12,3,29,0.00
2013-3-14,39.4,33.1,24.6,35.8,28.9,21.0,92,84,72,29.95,29.64,6,0,15,0.04
2013-3-15,44.3,39.2,34.8,39.8,35.6,32.5,93,87,77,29.64,29.34,6,1,15,0.04
2013-3-16,42.3,36.8,31.7,37.2,33.6,29.4,94,88,75,29.34,29.17,7,1,17,0.02
2013-3-17,40.5,35.3,31.6,36.5,32.4,30.1,98,89,79,29.17,29.09,8,1,18,0.08
2013-3-18,38.0,34.5,31.8,34.3,31.1,28.6,94,87,78,29.36,29.15,12,2,28,0.01
2013-3-19,39.4,35.2,31.9,35.0,32.2,29.8,94,89,79,29.55,29.36,8,3,20,0.06
2013-3-20,37.9,35.2,31.0,31.8,29.3,26.4,86,79,70,29.97,29.55,14,4,24,0.06
2013-3-21,38.6,32.7,27.3,27.7,25.8,24.1,89,76,59,30.02,29.90,20,7,38,0.00
2013-3-22,33.5,32.0,30.1,28.6,27.3,25.2,91,83,73,29.90,29.82,23,14,45,0.01
2013-3-23,32.6,31.8,31.2,28.1,26.1,24.3,85,79,74,30.05,29.88,22,13,44,0.01
2013-3-24,35.5,32.7,30.9,25.8,23.9,22.4,77,70,61,30.16,30.03,21,9,43,0.01
2013-3-25,35.6,32.4,30.4,27.1,24.7,23.3,79,73,68,30.17,30.11,15,7,31,0.01
2013-3-26,36.1,32.2,30.0,26.7,24.9,23.5,83,74,65,30.13,30.04,13,4,30,0.00
2013-3-27,37.0,32.6,29.4,28.1,24.3,21.9,84,72,58,30.04,29.97,13,3,27,0.00
2013-3-28,38.8,32.8,26.9,26.6,23.8,21.4,83,70,56,30.00,29.96,13,3,24,0.00
2013-3-29,39.0,32.4,26.4,27.5,24.7,21.8,91,74,55,29.96,29.85,12,2,24,0.00
2013-3-30,39.5,31.8,24.4,28.7,22.8,19.8,92,71,48,29.98,29.88,9,1,17,0.00
2013-3-31,38.5,31.9,22.6,26.4,22.7,18.5,85,70,52,29.98,29.91,10,3,22,0.00
2013-4-1,40.6,36.0,31.2,26.1,24.2,22.3,81,62,54,29.99,29.92,16,6,27,0.00
2013-4-2,41.0,35.2,27.4,30.4,25.7,21.4,83,69,53,30.17,29.99,13,2,21,0.00
2013-4-3,45.2,35.6,23.2,29.2,24.6,19.7,89,66,42,30.22,30.16,10,2,21,0.00
2013-4-4,43.5,36.3,29.2,32.2,27.7,24.5,88,72,50,30.19,30.11,15,3,28,0.00
2013-4-5,42.1,37.5,34.3,32.2,29.2,26.2,88,73,57,30.21,30.10,13,3,25,0.01
2013-4-6,48.3,37.6,25.8,32.5,27.8,21.9,88,69,50,30.25,30.17,14,2,22,0.00
2013-4-7,49.2,38.3,29.3,33.2,29.9,25.7,88,73,48,30.18,29.90,9,1,20,0.00
2013-4-8,40.1,37.3,34.6,32.0,30.0,26.8,82,75,64,29.90,29.64,14,6,27,0.00
2013-4-9,42.8,37.6,32.2,32.9,29.0,24.8,77,71,64,29.63,29.55,14,3,25,0.00
2013-4-10,49.2,41.0,33.7,34.3,31.8,29.6,86,71,49,29.63,29.51,9,2,18,0.00
2013-4-11,45.1,39.3,35.1,36.0,33.4,31.3,87,80,64,29.51,29.33,13,6,22,0.00
2013-4-12,49.6,42.2,36.9,41.0,37.0,33.5,89,82,69,29.59,29.30,10,2,20,0.01
2013-4-13,55.6,44.6,34.5,48.1,39.7,32.4,93,84,48,29.72,29.52,16,4,31,0.02
2013-4-14,54.3,52.4,49.3,50.7,47.8,44.1,93,85,72,29.59,29.45,21,8,39,0.26
2013-4-15,53.1,49.6,46.5,47.0,44.5,42.5,91,83,69,29.80,29.59,15,4,31,0.13
2013-4-16,53.4,49.4,45.3,45.7,40.1,33.8,92,71,54,29.85,29.50,18,5,39,0.23
2013-4-17,56.5,48.3,41.1,49.5,43.2,34.0,93,83,62,29.86,29.25,23,8,49,0.44
2013-4-18,50.8,45.5,42.8,42.1,40.3,37.3,91,82,67,29.85,29.23,26,7,49,0.10
2013-4-19,52.1,44.7,39.7,40.3,37.9,35.2,93,78,55,30.41,29.86,12,2,23,0.28
2013-4-20,55.4,45.1,33.7,40.2,35.4,31.2,91,70,46,30.43,30.19,10,2,21,0.01
2013-4-21,49.2,44.7,41.6,42.1,38.5,33.9,86,79,68,30.19,29.84,12,2,21,0.00
2013-4-22,54.7,46.6,37.6,47.4,40.7,34.7,89,80,72,29.86,29.67,13,3,32,0.00
2013-4-23,53.1,49.2,45.1,42.7,40.6,37.6,82,72,61,30.08,29.76,18,5,36,0.00
2013-4-24,55.7,50.3,45.1,51.1,44.9,39.1,92,82,68,30.18,29.95,16,4,26,0.01
2013-4-25,49.6,44.4,39.8,45.2,40.7,35.9,94,87,72,30.18,30.00,14,2,26,0.11
2013-4-26,48.3,40.6,33.8,39.2,35.3,31.4,93,82,62,30.02,29.80,24,4,32,0.10
2013-4-27,51.0,42.2,32.7,38.9,33.5,30.3,98,73,47,30.06,29.90,18,3,28,0.12
2013-4-28,51.3,43.6,38.5,43.9,37.3,29.9,89,79,69,30.00,29.64,14,3,29,0.04
2013-4-29,51.4,46.4,40.5,41.1,36.8,34.2,80,69,56,30.07,29.67,18,8,39,0.01
2013-4-30,55.8,45.9,35.5,39.8,34.6,22.8,89,67,29,30.26,30.07,8,1,18,0.01
2013-5-1,54.4,45.6,36.7,43.1,35.9,28.5,82,69,53,30.23,30.14,13,2,25,0.00
2013-5-2,59.4,46.8,32.3,38.1,33.8,28.6,89,63,32,30.23,30.05,5,0,14,0.00
2013-5-3,54.7,50.0,46.7,46.2,43.7,37.4,89,79,66,30.05,29.73,6,1,20,0.04
2013-5-4,53.6,48.2,42.3,45.3,41.1,35.7,94,77,53,29.92,29.71,13,2,26,0.11
2013-5-5,59.6,52.3,45.5,51.6,46.1,41.5,88,79,71,30.06,29.92,10,1,20,0.00
2013-5-6,61.1,52.0,44.9,47.8,43.7,39.1,87,74,53,30.05,29.98,7,1,17,0.00
2013-5-7,71.8,56.2,39.0,48.0,42.1,35.0,87,62,38,30.02,29.80,12,2,27,0.00
2013-5-8,58.4,53.1,47.0,52.7,45.7,39.9,92,76,67,29.80,29.46,14,4,28,0.17
2013-5-9,49.7,46.2,43.0,44.4,40.9,36.4,91,82,70,29.55,29.24,16,4,31,0.31
2013-5-10,55.2,48.4,44.3,48.0,43.6,37.9,93,84,70,29.66,29.28,10,2,25,0.04
2013-5-11,50.4,45.7,43.2,44.4,40.5,36.8,92,82,60,29.70,29.53,16,4,34,0.14
2013-5-12,51.8,47.5,43.4,48.3,42.2,38.1,91,82,68,29.80,29.61,16,3,28,0.07
2013-5-13,50.7,43.9,39.7,40.3,37.0,33.6,88,77,56,29.66,29.53,12,3,32,0.02
2013-5-14,53.7,46.6,41.2,38.2,35.1,31.0,80,65,49,29.53,29.35,7,1,20,0.02
2013-5-15,49.7,43.0,39.8,42.9,38.4,34.5,92,84,74,29.40,29.19,24,7,36,0.19
2013-5-16,55.5,45.2,35.2,42.8,38.8,32.5,92,80,55,29.60,29.40,9,1,18,0.26
2013-5-17,57.7,47.7,35.7,47.5,39.8,33.6,95,76,49,29.78,29.60,18,2,26,0.01
2013-5-18,52.6,48.1,44.6,51.4,46.4,42.4,96,94,79,29.78,29.60,10,2,17,0.70
2013-5-19,57.0,51.8,47.7,52.5,49.3,46.3,96,92,84,29.91,29.72,9,2,17,0.01
2013-5-20,61.6,56.7,52.1,57.4,54.1,50.0,96,91,86,29.92,29.87,9,2,18,0.07
2013-5-21,63.5,56.1,50.7,54.1,50.0,46.2,95,81,62,30.02,29.92,13,4,27,0.01
2013-5-22,56.8,50.0,41.6,46.0,39.9,32.6,87,69,47,30.03,29.95,23,9,42,0.01
2013-5-23,48.0,42.8,36.6,39.9,35.2,32.8,88,75,61,29.95,29.81,24,10,37,0.03
2013-5-24,50.6,44.0,39.1,41.1,37.5,32.7,91,78,61,30.15,29.79,24,7,39,0.01
2013-5-25,62.5,49.3,32.9,45.1,38.4,30.5,94,69,41,30.16,30.09,15,2,23,0.01
2013-5-26,64.6,51.1,37.2,48.3,40.2,32.5,86,68,50,30.10,29.80,7,0,14,0.00
2013-5-27,50.1,47.2,42.8,45.9,42.0,33.7,88,82,61,29.79,29.46,10,2,37,0.13
2013-5-28,55.0,49.8,45.1,51.1,44.3,37.8,93,82,67,29.64,29.49,7,2,18,0.09
2013-5-29,55.4,50.7,44.4,51.9,46.7,37.5,92,86,67,29.83,29.64,14,4,26,0.09
2013-5-30,60.9,53.8,48.9,52.9,49.4,45.8,94,85,72,30.03,29.80,13,2,26,0.08
2013-5-31,71.2,56.0,43.7,57.3,47.3,38.9,94,75,41,30.12,30.02,18,4,28,0.00
2013-6-1,60.9,51.3,41.3,46.2,41.8,37.6,88,71,54,30.26,30.12,15,4,23,0.00
2013-6-2,61.4,51.6,39.5,46.7,42.2,35.7,92,71,55,30.41,30.25,13,3,20,0.00
2013-6-3,67.1,55.9,41.0,53.9,47.9,37.7,89,76,62,30.45,30.40,9,1,18,0.00
2013-6-4,70.2,59.4,46.6,50.6,47.2,42.7,88,66,46,30.43,30.25,5,0,15,0.00
2013-6-5,70.3,57.9,45.0,52.9,48.0,41.6,89,71,51,30.25,30.07,8,1,20,0.00
2013-6-6,72.1,60.3,50.4,55.1,50.4,46.0,86,71,44,30.20,30.12,12,2,18,0.00
2013-6-7,74.7,62.7,48.8,57.4,50.2,45.7,90,66,39,30.23,30.17,9,2,20,0.00
2013-6-8,70.1,60.0,48.1,50.4,46.9,43.2,83,63,47,30.22,30.06,7,1,17,0.00
2013-6-9,70.3,58.3,48.5,54.6,48.9,43.3,84,72,54,30.07,29.91,9,1,17,0.00
2013-6-10,63.3,54.9,46.7,50.6,46.8,43.3,91,75,57,29.95,29.83,8,1,17,0.00
2013-6-11,60.4,54.5,45.0,55.1,48.3,40.9,87,80,70,29.85,29.68,7,2,20,0.00
2013-6-12,65.3,58.1,53.8,55.7,52.6,50.8,94,82,66,29.68,29.53,7,1,17,0.03
2013-6-13,59.8,54.7,51.4,52.1,48.7,45.4,94,81,63,29.79,29.50,14,3,25,0.01
2013-6-14,60.4,53.5,45.6,52.1,47.9,42.5,92,82,68,29.82,29.53,6,1,20,0.23
2013-6-15,58.0,51.7,47.8,47.4,45.3,42.7,91,80,59,29.59,29.43,8,1,20,0.25
2013-6-16,65.4,55.8,48.0,51.6,48.0,45.4,93,76,58,29.94,29.58,6,1,15,0.26
2013-6-17,68.6,58.0,48.5,53.2,49.5,44.6,88,74,51,29.99,29.93,7,1,17,0.01
2013-6-18,73.7,63.0,53.8,56.8,50.9,46.5,81,66,45,29.99,29.86,14,2,22,0.00
2013-6-19,69.2,60.9,53.5,54.1,50.4,46.2,84,69,49,29.98,29.89,17,3,25,0.00
2013-6-20,69.9,58.2,46.1,57.1,50.7,42.4,87,77,55,29.97,29.73,9,1,20,0.03
2013-6-21,66.8,59.3,55.0,57.2,52.5,46.9,93,79,57,29.73,29.61,12,1,22,0.05
2013-6-22,57.3,53.3,49.6,53.5,49.4,45.7,93,87,77,29.62,29.32,6,1,18,0.25
2013-6-23,60.7,53.8,49.7,53.4,49.6,44.8,94,86,75,29.87,29.36,20,7,34,0.02
2013-6-24,57.5,52.0,47.2,46.3,44.4,42.0,85,76,61,30.22,29.88,14,5,23,0.02
2013-6-25,66.0,55.4,42.1,49.2,45.1,39.4,91,70,49,30.36,30.22,6,1,17,0.00
2013-6-26,65.9,57.5,50.0,50.4,47.9,45.6,88,71,54,30.37,30.33,17,4,26,0.00
2013-6-27,57.8,53.6,49.0,53.5,48.9,44.0,94,84,69,30.35,30.09,6,1,17,0.18
2013-6-28,61.1,55.9,50.0,56.9,53.3,44.2,96,91,80,30.09,29.90,15,3,32,0.11
2013-6-29,60.9,55.1,48.7,52.8,47.8,44.1,89,77,62,30.12,30.03,14,3,25,0.11
2013-6-30,63.5,57.5,52.3,54.5,51.5,46.3,90,81,67,30.11,29.85,8,1,24,0.01
2013-7-1,61.6,54.7,49.8,48.4,45.4,43.6,85,72,53,29.88,29.85,9,2,23,0.01
2013-7-2,57.3,54.2,51.2,53.2,49.0,44.2,93,83,72,29.87,29.43,10,1,22,0.12
2013-7-3,63.2,58.4,55.2,56.2,53.0,50.3,94,83,68,29.83,29.42,8,2,18,0.12
2013-7-4,66.2,60.3,55.8,58.9,53.4,49.4,92,78,62,30.14,29.77,12,2,29,0.01
2013-7-5,70.3,60.0,50.7,58.1,51.8,46.3,88,75,59,30.34,30.14,9,1,15,0.00
2013-7-6,73.3,62.6,50.3,58.6,53.2,47.7,91,73,50,30.40,30.29,8,1,15,0.00
2013-7-7,74.9,64.3,51.0,62.5,56.1,47.6,88,76,61,30.52,30.40,8,1,18,0.00
2013-7-8,80.0,68.7,56.3,59.6,55.8,52.5,90,67,40,30.54,30.42,7,0,14,0.00
2013-7-9,80.9,70.9,57.1,65.1,60.7,53.5,88,71,55,30.43,30.25,10,2,23,0.00
2013-7-10,67.9,63.9,56.9,60.6,57.5,52.1,88,80,74,30.30,30.25,6,1,13,0.00
2013-7-11,78.5,64.4,49.5,62.3,55.8,46.7,92,75,55,30.29,30.19,8,1,15,0.00
2013-7-12,79.4,69.3,57.8,66.9,61.3,55.2,93,77,61,30.22,30.15,14,2,22,0.00
2013-7-13,77.7,68.6,58.3,64.5,59.4,54.7,91,74,56,30.21,30.18,16,3,26,0.00
2013-7-14,75.8,63.7,54.6,58.5,52.2,45.4,93,69,40,30.22,30.13,9,1,20,0.00
2013-7-15,75.2,62.0,49.4,59.9,52.0,43.9,83,71,57,30.18,30.13,13,2,23,0.00
2013-7-16,76.4,65.5,55.5,62.4,56.8,50.4,84,74,61,30.19,30.14,13,2,23,0.00
2013-7-17,78.0,65.2,52.6,57.9,53.8,49.7,91,69,45,30.28,30.19,15,2,20,0.00
2013-7-18,82.3,70.5,55.0,63.2,58.1,50.6,86,67,50,30.30,30.25,13,2,20,0.00
2013-7-19,84.4,71.3,58.9,66.5,60.5,55.5,91,70,50,30.28,30.22,9,1,20,0.00
2013-7-20,73.6,64.4,55.7,60.2,56.9,52.2,90,77,63,30.28,30.19,10,2,18,0.00
2013-7-21,70.9,64.0,56.9,57.8,55.1,52.3,87,74,59,30.21,30.04,12,2,24,0.00
2013-7-22,79.9,67.7,58.2,65.7,59.2,53.3,89,75,60,30.06,29.89,10,3,20,0.00
2013-7-23,74.3,66.4,62.0,65.5,61.5,58.0,94,85,69,29.90,29.78,8,1,18,0.30
2013-7-24,75.1,65.5,58.4,63.3,59.7,56.9,96,83,55,29.85,29.81,14,1,20,0.30
2013-7-25,73.7,64.7,59.9,61.4,58.7,54.3,95,82,60,29.82,29.73,7,1,14,0.51
2013-7-26,74.3,65.2,57.5,58.0,55.0,52.6,89,71,52,29.81,29.78,7,1,17,0.00
2013-7-27,75.7,64.3,53.0,60.7,55.1,48.9,91,74,49,29.81,29.56,10,1,20,0.09
2013-7-28,68.9,61.4,55.3,60.2,56.5,53.9,96,85,61,29.60,29.44,9,1,21,0.12
2013-7-29,70.1,62.6,58.3,62.9,57.3,53.7,96,84,66,29.73,29.56,6,1,18,0.64
2013-7-30,68.6,60.3,54.6,57.5,53.1,50.8,94,78,56,29.76,29.71,8,1,23,0.10
2013-7-31,70.5,59.3,52.5,60.5,54.3,50.5,96,85,56,29.83,29.70,6,1,14,0.59
2013-8-1,75.8,66.1,61.7,67.1,62.0,59.6,96,87,66,29.70,29.56,7,1,20,0.63
2013-8-2,70.7,65.4,60.5,60.9,57.2,51.3,92,75,62,29.61,29.52,7,1,18,0.00
2013-8-3,66.5,60.3,55.0,55.1,52.3,49.8,91,76,56,29.86,29.58,9,1,24,0.09
2013-8-4,70.7,61.8,55.4,58.4,55.5,52.6,94,81,59,29.88,29.80,6,1,15,0.23
2013-8-5,61.1,58.8,51.9,59.9,57.1,50.5,96,94,92,29.81,29.65,15,2,22,0.83
2013-8-6,63.0,55.9,49.9,51.8,49.5,46.3,95,80,61,29.94,29.81,8,1,14,0.83
2013-8-7,70.3,58.1,44.8,54.0,48.9,42.3,92,73,49,30.01,29.91,8,0,15,0.00
2013-8-8,70.5,60.2,48.9,55.4,50.8,46.2,91,73,53,30.01,29.91,3,0,13,0.14
2013-8-9,63.0,58.0,53.2,58.4,52.7,47.0,95,83,70,30.07,29.83,13,3,26,0.40
2013-8-10,61.7,56.4,51.4,53.1,49.7,46.9,89,79,65,30.09,29.95,8,1,18,0.05
2013-8-11,63.4,55.4,51.7,53.7,51.2,49.1,93,86,64,29.95,29.86,13,1,26,0.11
2013-8-12,62.5,55.3,51.0,54.6,50.5,47.8,93,84,69,29.99,29.84,17,4,28,0.04
2013-8-13,65.2,56.9,48.4,53.1,49.4,45.3,91,77,55,30.11,29.99,16,2,23,0.04
2013-8-14,68.6,60.2,52.3,59.3,53.9,48.4,91,80,63,30.11,29.92,3,0,18,0.00
2013-8-15,68.3,63.1,59.5,62.2,59.5,58.0,95,88,73,29.92,29.72,5,0,13,0.31
2013-8-16,66.9,60.9,53.8,59.8,55.4,52.4,95,83,64,29.86,29.69,10,2,20,0.60
2013-8-17,62.6,59.7,55.7,59.4,56.0,52.6,93,88,79,29.83,29.40,9,1,22,0.15
2013-8-18,63.1,56.3,51.6,53.8,49.9,47.5,92,80,59,29.79,29.47,10,1,22,0.01
2013-8-19,63.2,56.9,50.7,53.0,50.4,48.1,92,80,64,30.15,29.79,9,1,22,0.02
2013-8-20,62.1,55.3,51.9,54.6,51.2,49.0,92,87,74,30.22,30.15,0,0,3,0.00
2013-8-25,70.8,66.8,60.0,60.5,58.9,56.1,87,76,68,30.08,30.01,2,0,6,0.00
2013-8-26,76.6,63.3,52.3,62.4,55.7,50.0,92,78,46,30.11,30.03,6,1,15,0.00
2013-8-27,67.1,58.8,50.8,58.8,54.5,48.8,95,86,72,30.12,30.03,13,2,20,0.00
2013-8-28,65.8,58.1,51.2,58.3,52.3,45.4,94,82,63,30.14,30.08,8,0,17,0.00
2013-8-29,64.4,58.8,50.5,58.2,53.7,45.1,91,83,76,30.08,29.99,7,0,18,0.00
2013-8-30,66.6,59.8,51.4,59.1,54.7,45.3,93,83,70,30.08,29.86,14,2,36,0.00
2013-8-31,59.7,53.2,46.4,50.5,45.9,41.2,85,76,64,30.30,30.07,17,3,31,0.01
2013-9-1,57.8,55.7,52.7,51.3,48.8,45.3,83,78,74,30.29,30.16,13,4,26,0.01
2013-9-2,66.7,61.2,56.6,60.0,56.5,50.9,90,85,79,30.24,30.13,12,2,22,0.00
2013-9-3,70.2,61.3,55.4,59.7,55.6,51.6,94,82,61,30.24,30.16,7,0,15,0.00
2013-9-4,70.1,60.8,50.8,55.9,51.5,45.7,93,74,42,30.16,29.89,6,0,13,0.00
2013-9-5,67.5,57.6,53.2,55.8,51.1,46.9,87,79,62,29.89,29.80,15,2,23,0.00
2013-9-6,53.0,49.0,46.3,49.8,47.0,44.8,95,93,85,29.81,29.70,14,5,32,0.85
2013-9-7,54.2,49.5,46.2,48.9,46.1,42.9,96,88,75,29.89,29.67,14,2,22,0.05
2013-9-8,58.5,50.4,41.7,49.0,44.6,38.7,91,81,65,29.93,29.88,8,1,17,0.02
2013-9-9,58.9,50.5,45.1,52.6,47.2,43.4,96,89,73,30.08,29.90,14,2,25,0.04
2013-9-10,59.4,52.0,45.4,50.0,47.3,43.6,94,85,68,30.18,30.08,18,4,31,0.04
2013-9-11,55.9,51.6,46.4,54.2,49.7,44.4,95,93,90,30.18,30.03,5,0,11,0.18
2013-9-12,65.8,57.9,53.4,57.7,54.8,52.2,96,90,69,30.05,29.89,6,0,15,0.09
2013-9-13,57.1,51.3,47.6,55.1,48.8,45.6,94,91,88,30.01,29.92,8,0,17,0.10
2013-9-14,58.3,50.8,44.5,50.8,45.7,41.3,95,83,66,30.00,29.94,12,2,22,0.02
2013-9-15,58.9,50.3,42.5,57.1,46.3,39.5,94,86,76,29.94,29.25,20,3,39,0.51
2013-9-16,50.1,46.0,42.2,46.1,42.7,39.4,92,88,83,29.38,29.31,21,8,39,0.05
2013-9-17,48.8,46.9,42.1,46.5,44.1,39.6,93,90,86,29.38,29.29,15,2,32,0.08
2013-9-18,55.1,47.2,40.7,48.1,43.1,39.1,96,86,73,29.72,29.36,18,4,36,0.08
2013-9-19,55.5,49.8,42.4,51.8,47.0,39.6,94,90,82,29.74,29.50,14,2,28,0.01
2013-9-20,56.1,50.5,43.5,49.8,46.0,40.5,94,85,71,30.06,29.71,12,1,26,0.01
2013-9-21,63.0,54.0,42.9,56.4,50.3,40.4,93,88,78,30.14,30.04,3,0,10,0.01
2013-9-22,66.4,60.0,53.0,58.4,55.0,50.1,95,84,71,30.27,30.13,8,1,20,0.00
2013-9-23,61.1,54.4,46.0,56.6,51.6,44.2,95,91,83,30.25,30.05,3,0,7,0.00
2013-9-24,63.9,58.3,54.8,58.3,55.4,53.4,96,90,81,30.05,29.87,3,0,14,0.01
2013-9-25,61.7,55.7,51.3,57.4,52.2,45.5,95,88,79,29.94,29.80,6,0,13,0.01
2013-9-26,57.6,53.3,50.0,50.1,47.0,44.8,84,79,69,30.03,29.94,8,1,18,0.01
2013-9-27,63.6,55.8,50.1,52.9,50.3,46.6,93,82,65,30.00,29.88,7,1,14,0.00
2013-9-28,63.0,54.0,45.8,51.1,46.5,42.7,91,77,59,29.88,29.78,10,2,21,0.00
2013-9-29,61.3,53.3,46.2,49.3,46.6,42.7,93,79,63,29.84,29.78,13,4,25,0.00
2013-9-30,58.9,53.7,50.3,50.2,47.8,45.3,88,80,72,29.79,29.72,12,4,28,0.00
2013-10-1,57.8,53.2,50.4,49.9,47.3,44.8,85,80,73,29.80,29.75,10,3,25,0.00
2013-10-2,58.4,55.3,52.5,55.7,51.6,47.5,94,87,81,29.77,29.72,10,3,22,0.06
2013-10-3,64.7,59.7,57.2,60.7,57.3,55.3,96,92,79,29.73,29.49,10,2,27,0.22
2013-10-4,61.3,58.2,54.4,60.4,56.5,52.4,97,94,91,29.81,29.52,9,1,20,0.88
2013-10-5,58.8,54.1,50.1,52.4,49.9,47.5,93,86,72,30.11,29.81,5,0,14,0.88
2013-10-6,61.4,56.0,49.4,56.3,52.8,47.4,95,89,82,30.12,30.08,6,0,22,0.00
2013-10-7,62.6,60.1,58.2,58.4,56.0,53.8,93,87,80,30.09,30.02,7,0,20,0.00
2013-10-8,59.0,55.8,50.6,56.4,51.4,44.9,93,85,76,30.15,30.01,9,2,20,0.01
2013-10-9,53.1,48.5,43.4,47.1,42.8,37.0,88,81,69,30.13,29.92,24,9,43,0.02
2013-10-10,48.5,43.8,38.8,41.6,36.9,32.8,85,77,71,30.30,30.04,25,8,40,0.02
2013-10-11,51.6,47.8,42.6,46.8,42.9,38.4,92,83,79,30.37,30.27,14,3,27,0.00
2013-10-12,54.5,50.6,47.2,48.5,45.7,41.5,88,83,78,30.34,30.13,12,1,23,0.00
2013-10-13,53.9,49.9,48.1,48.1,44.9,42.2,90,83,72,30.13,29.87,13,3,34,0.03
2013-10-14,50.7,48.6,45.6,46.8,44.9,42.6,93,87,78,29.88,29.79,12,2,31,0.03
2013-10-15,52.0,47.4,40.2,50.5,45.2,38.3,96,92,87,29.92,29.78,8,1,17,0.04
2013-10-16,50.2,45.2,38.0,46.4,43.2,36.4,100,93,85,29.92,29.40,13,2,30,0.52
2013-10-17,57.1,49.0,42.0,52.1,45.3,39.9,95,88,73,29.91,29.55,8,1,18,0.53
2013-10-18,53.7,48.3,39.8,51.1,46.1,37.9,95,92,87,29.93,29.61,8,2,24,0.03
2013-10-19,58.9,53.8,51.0,55.4,51.5,48.7,96,92,85,29.60,29.42,7,1,21,0.17
2013-10-20,56.0,53.1,51.2,53.5,50.6,48.6,95,91,85,29.47,29.38,5,0,17,0.15
2013-10-21,58.5,53.8,51.6,56.5,51.6,49.3,96,92,89,29.50,29.29,8,0,20,0.20
2013-10-22,59.0,57.0,55.6,56.4,54.9,53.6,95,93,87,29.29,29.08,6,1,18,0.41
2013-10-23,55.8,50.2,44.5,54.0,48.1,41.6,95,92,87,29.61,28.98,15,2,32,0.12
2013-10-24,55.0,48.8,42.6,47.5,43.6,39.5,92,83,68,29.85,29.62,1,0,9,0.12
2013-10-25,58.5,52.9,45.8,54.3,50.6,43.6,95,92,83,29.77,29.33,12,1,25,0.38
2013-10-26,54.7,52.0,45.7,52.3,48.9,43.5,95,89,76,29.43,29.20,6,0,21,0.17
2013-10-27,51.5,49.1,46.3,47.5,45.8,43.7,94,88,83,29.21,28.95,6,1,30,0.44
2013-10-28,49.5,46.4,43.8,46.4,44.0,40.6,95,91,86,29.32,28.86,14,1,24,0.26
2013-10-29,47.6,44.6,42.0,43.0,41.2,38.7,94,88,80,29.87,29.33,14,2,26,0.01
2013-10-30,50.6,44.8,37.3,48.1,41.9,35.4,94,89,79,29.93,29.68,9,1,24,0.15
2013-10-31,53.2,47.8,42.7,46.2,42.7,39.3,92,83,73,29.85,29.65,7,0,28,0.08
2013-11-1,51.3,44.0,36.0,42.3,38.9,33.6,91,82,70,29.67,29.54,7,0,15,0.08
2013-11-2,48.5,40.4,32.6,45.6,37.9,30.8,100,91,84,29.54,28.86,20,3,42,0.50
2013-11-3,45.5,41.1,31.4,40.1,37.1,29.0,91,86,77,29.29,28.99,24,7,46,0.57
2013-11-4,41.8,34.5,28.9,37.9,32.0,27.1,95,90,82,29.35,29.16,8,0,15,0.01
2013-11-5,42.6,38.8,32.3,40.2,36.7,30.2,95,92,89,29.31,29.12,7,1,23,0.04
2013-11-6,46.8,42.9,40.1,41.7,39.7,37.4,93,88,79,29.39,29.26,2,0,10,0.08
2013-11-7,45.5,41.5,34.4,41.3,38.0,32.1,94,87,79,29.53,29.39,5,0,22,0.10
2013-11-8,46.4,42.2,38.5,42.2,39.1,35.9,94,89,84,29.53,29.47,5,0,13,0.14
2013-11-9,40.6,36.6,30.5,39.0,34.9,28.7,95,94,92,29.58,29.48,5,0,10,0.08
2013-11-10,40.6,34.4,28.5,38.5,32.3,27.0,96,92,89,30.10,29.59,6,0,13,0.01
2013-11-11,52.5,46.0,37.8,50.5,43.5,35.1,94,91,82,30.06,29.87,12,1,25,0.06
2013-11-12,47.4,44.5,42.2,43.0,40.3,37.8,94,85,75,30.37,30.05,14,2,30,0.00
2013-11-13,48.3,44.4,37.9,44.4,40.0,35.5,93,85,68,30.39,29.86,8,0,22,0.20
2013-11-14,45.7,40.8,31.7,42.8,36.4,29.1,95,84,77,30.44,29.86,21,7,40,0.20
2013-11-15,47.3,41.1,31.6,44.5,38.5,29.5,93,91,88,30.46,30.38,3,0,13,0.00
2013-11-16,50.2,47.6,41.0,47.1,43.5,37.6,92,86,79,30.39,30.25,6,0,21,0.01
2013-11-17,49.0,45.4,37.3,46.7,42.8,35.4,94,91,85,30.30,29.87,6,0,12,0.01
2013-11-18,48.6,40.8,32.7,46.6,39.1,30.7,95,94,91,29.87,29.72,16,1,22,0.02
2013-11-19,38.4,32.4,28.5,36.0,29.4,26.4,94,89,81,29.99,29.72,10,1,20,0.10
2013-11-20,42.2,39.4,36.2,40.1,36.1,33.8,98,88,82,29.72,29.36,30,11,51,0.48
2013-11-21,39.1,37.6,34.7,37.4,35.0,32.4,94,90,84,30.05,29.59,29,5,48,0.02
2013-11-22,36.9,32.5,27.0,34.2,30.3,24.9,94,91,89,30.22,30.05,6,0,14,0.02
2013-11-23,38.9,34.0,26.8,35.3,31.7,24.8,93,91,87,30.36,30.22,3,0,8,0.00
2013-11-24,41.4,37.1,29.8,38.4,34.9,28.0,94,92,89,30.63,30.37,7,0,13,0.00
2013-11-25,35.9,31.7,27.3,32.7,29.4,25.5,94,91,86,30.70,30.62,2,0,5,0.01
2013-11-26,46.8,40.1,32.8,44.9,37.6,30.4,94,91,85,30.67,30.50,7,0,15,0.01
2013-11-27,50.3,48.0,46.1,46.3,44.9,42.5,93,89,85,30.50,30.44,8,1,18,0.01
2013-11-28,47.3,43.3,36.5,44.8,40.5,34.4,93,90,82,30.54,30.37,3,0,6,0.00
2013-11-29,47.3,42.1,38.2,43.8,38.4,34.0,95,87,83,30.37,30.09,20,7,40,0.07
2013-11-30,43.9,37.8,31.0,41.3,34.7,28.6,93,89,84,30.37,30.20,9,0,20,0.00
2013-12-1,47.8,44.6,42.4,44.4,41.7,39.3,93,90,85,30.54,30.35,7,0,17,0.00
2013-12-2,44.8,43.1,38.0,40.7,39.4,35.6,93,87,82,30.53,30.34,2,0,8,0.00
2013-12-3,47.9,45.7,41.5,44.9,41.7,37.0,92,86,80,30.34,30.10,12,0,28,0.02
2013-12-4,44.0,39.6,32.8,41.5,35.5,30.2,94,85,79,30.30,30.12,14,3,31,0.01
2013-12-5,46.2,39.6,32.6,43.0,35.0,27.7,91,84,76,30.18,29.60,37,11,64,0.19
2013-12-6,37.4,34.8,30.8,33.7,29.7,26.0,93,82,76,30.27,30.11,13,2,29,0.19
2013-12-7,44.8,42.1,35.7,42.8,40.1,33.8,95,93,89,30.18,30.00,5,0,15,0.02
2013-12-8,51.2,48.6,44.8,48.3,45.8,42.4,94,90,87,30.03,29.93,9,1,27,0.13
2013-12-9,51.0,49.7,46.5,47.4,45.4,41.3,89,85,82,30.20,30.02,10,0,22,0.13
2013-12-10,49.0,46.5,43.2,43.4,41.6,39.2,88,83,78,30.25,30.18,5,0,18,0.01
2013-12-11,49.3,44.6,40.1,44.7,39.5,32.9,90,82,71,30.25,30.06,5,0,14,0.01
2013-12-12,51.5,48.0,41.9,49.5,42.9,33.7,93,83,55,30.06,29.93,7,0,18,0.01
2013-12-13,51.9,49.4,43.0,49.6,46.0,35.9,94,88,74,29.93,29.73,6,0,27,0.05
2013-12-14,50.0,45.3,39.6,48.0,41.0,33.7,93,85,76,29.96,29.55,17,2,41,0.84
2013-12-15,51.0,45.9,41.4,48.4,41.9,36.3,94,86,78,29.90,29.55,12,1,25,0.42
2013-12-16,50.6,43.3,39.2,47.8,38.9,34.5,93,85,74,29.97,29.52,12,0,20,0.74
2013-12-17,41.8,37.5,32.9,37.5,34.0,30.6,93,87,79,30.11,29.81,6,0,20,0.00
2013-12-18,49.5,43.3,36.5,46.7,40.2,32.2,94,89,75,29.80,28.85,14,3,39,0.86
2013-12-19,43.9,38.6,35.2,36.8,33.6,31.1,91,82,74,29.54,28.96,7,1,31,0.15
2013-12-20,49.6,43.3,37.0,47.5,39.3,32.3,93,86,80,29.80,29.49,14,1,32,0.95
2013-12-21,49.2,45.6,39.3,45.9,40.0,34.4,92,81,71,29.58,29.21,13,2,29,0.65
2013-12-22,42.3,38.5,35.6,37.5,33.8,30.6,92,83,76,29.58,29.34,8,1,26,0.16
2013-12-23,48.7,43.0,36.8,46.6,39.8,33.0,96,88,81,29.57,28.34,13,2,31,1.29
2013-12-24,47.9,40.9,35.9,45.5,34.4,30.0,92,78,66,28.62,28.31,16,3,43,0.45
2013-12-25,43.1,39.3,35.3,36.6,33.8,32.2,91,81,72,29.08,28.60,6,0,15,0.46
2013-12-26,40.2,35.9,31.3,37.4,33.6,29.5,94,92,84,29.28,28.67,16,2,37,0.19
2013-12-27,45.8,42.8,40.2,41.0,38.8,36.2,93,86,78,28.87,28.31,20,6,43,0.51
2013-12-28,42.3,40.1,39.0,36.6,34.9,33.9,85,82,77,29.50,28.87,9,1,22,0.51
2013-12-29,43.2,40.2,37.9,40.5,36.0,33.3,91,85,74,29.81,29.50,8,1,24,0.04
2013-12-30,48.8,43.7,38.5,46.5,41.0,35.3,93,90,83,29.60,29.13,20,3,48,0.38
2013-12-31,44.8,41.6,38.6,42.0,37.9,35.4,90,87,81,29.59,29.25,12,2,25,0.08
2014-1-1,48.6,42.5,39.0,46.9,39.8,36.0,97,90,87,29.30,28.68,13,3,25,0.76
2014-1-2,44.7,42.8,41.0,41.5,39.3,37.8,93,87,81,29.14,28.77,13,1,25,0.16